| time (UTC) | temp F | wind direction | speed MPH | gust MPH | rain 1hr in | rain 24hr in | rain mn in | humidity % | barometer mb |
| 20260506034508 | 64 | 77 | 2.0 | 6.0 | 0.00 | 0.00 | 0.00 | 59 | 1010.4 |
| 20260506033008 | 66 | 79 | 2.0 | 5.0 | 0.00 | 0.00 | 0.00 | 57 | 1010.1 |
| 20260506031527 | 68 | 88 | 2.0 | 9.0 | 0.00 | 0.00 | 0.00 | 53 | 1010.0 |
| 20260506030018 | 70 | 87 | 1.0 | 5.0 | 0.00 | 0.00 | 0.00 | 51 | 1009.7 |
| 20260506024522 | 71 | 60 | 1.0 | 5.0 | 0.00 | 0.00 | 0.00 | 51 | 1009.6 |
| 20260506023028 | 72 | 122 | 1.0 | 5.0 | 0.00 | 0.00 | 0.00 | 50 | 1009.2 |
| 20260506021526 | 72 | 79 | 1.0 | 4.0 | 0.00 | 0.00 | 0.00 | 49 | 1008.8 |
| 20260506020016 | 73 | 110 | 1.0 | 5.0 | 0.00 | 0.00 | 0.00 | 48 | 1008.7 |
| 20260506014526 | 74 | 122 | 2.0 | 6.0 | 0.00 | 0.00 | 0.00 | 47 | 1008.5 |
| 20260506013023 | 76 | 99 | 1.0 | 5.0 | 0.00 | 0.00 | 0.00 | 46 | 1007.9 |
| 20260506011527 | 77 | 67 | 1.0 | 4.0 | 0.00 | 0.00 | 0.00 | 44 | 1007.5 |
| 20260506010028 | 78 | 358 | 1.0 | 5.0 | 0.00 | 0.00 | 0.00 | 43 | 1007.3 |
| 20260506004530 | 79 | 326 | 1.0 | 4.0 | 0.00 | 0.00 | 0.00 | 43 | 1007.3 |
| 20260506003038 | 80 | 69 | 1.0 | 4.0 | 0.00 | 0.00 | 0.00 | 41 | 1007.0 |
| 20260506001524 | 81 | 82 | 1.0 | 9.0 | 0.00 | 0.00 | 0.00 | 40 | 1006.5 |
| 20260506000027 | 82 | 301 | 1.0 | 5.0 | 0.00 | 0.00 | 0.00 | 39 | 1006.6 |
| 20260505234522 | 83 | 25 | 2.0 | 10.0 | 0.00 | 0.00 | 0.00 | 36 | 1006.3 |
| 20260505233018 | 84 | 6 | 1.0 | 6.0 | 0.00 | 0.00 | 0.00 | 33 | 1005.9 |
| 20260505231522 | 84 | 349 | 1.0 | 5.0 | 0.00 | 0.00 | 0.00 | 31 | 1005.7 |
| 20260505230030 | 85 | 326 | 4.0 | 9.0 | 0.00 | 0.00 | 0.00 | 31 | 1006.1 |
| 20260505224527 | 86 | 328 | 2.0 | 8.0 | 0.00 | 0.00 | 0.00 | 31 | 1006.2 |
| 20260505223015 | 86 | 84 | 2.0 | 5.0 | 0.00 | 0.00 | 0.00 | 30 | 1005.9 |
| 20260505221520 | 88 | 352 | 1.0 | 5.0 | 0.00 | 0.00 | 0.00 | 30 | 1005.6 |
| 20260505220036 | 88 | 313 | 2.0 | 8.0 | 0.00 | 0.00 | 0.00 | 29 | 1005.1 |
| 20260505214532 | 89 | 59 | 1.0 | 7.0 | 0.00 | 0.00 | 0.00 | 28 | 1005.3 |
| 20260505213028 | 91 | 356 | 2.0 | 6.0 | 0.00 | 0.00 | 0.00 | 26 | 1005.3 |
| 20260505211518 | 94 | 285 | 2.0 | 7.0 | 0.00 | 0.00 | 0.00 | 19 | 1005.3 |
| 20260505210019 | 93 | 264 | 1.0 | 7.0 | 0.00 | 0.00 | 0.00 | 20 | 1005.5 |
| 20260505204526 | 94 | 260 | 1.0 | 6.0 | 0.00 | 0.00 | 0.00 | 18 | 1005.5 |
| 20260505203024 | 96 | 255 | 1.0 | 7.0 | 0.00 | 0.00 | 0.00 | 19 | 1005.6 |
| 20260505201526 | 95 | 223 | 2.0 | 8.0 | 0.00 | 0.00 | 0.00 | 22 | 1005.5 |
| 20260505200026 | 93 | 288 | 2.0 | 5.0 | 0.00 | 0.00 | 0.00 | 23 | 1006.0 |
| 20260505194533 | 93 | 283 | 4.0 | 9.0 | 0.00 | 0.00 | 0.00 | 22 | 1006.2 |
| 20260505193037 | 93 | 288 | 3.0 | 8.0 | 0.00 | 0.00 | 0.00 | 23 | 1006.3 |
| 20260505191537 | 92 | 245 | 3.0 | 7.0 | 0.00 | 0.00 | 0.00 | 26 | 1006.3 |
| 20260505190014 | 90 | 248 | 2.0 | 8.0 | 0.00 | 0.00 | 0.00 | 29 | 1006.6 |
| 20260505184529 | 90 | 290 | 3.0 | 12.0 | 0.00 | 0.00 | 0.00 | 28 | 1006.6 |
| 20260505183027 | 91 | 296 | 2.0 | 5.0 | 0.00 | 0.00 | 0.00 | 27 | 1006.9 |
| 20260505181505 | 90 | 176 | 1.0 | 4.0 | 0.00 | 0.00 | 0.00 | 35 | 1007.1 |
| 20260505180012 | 88 | 241 | 1.0 | 4.0 | 0.00 | 0.00 | 0.00 | 38 | 1007.3 |
| 20260505174529 | 88 | 257 | 1.0 | 6.0 | 0.00 | 0.00 | 0.00 | 40 | 1007.3 |
| 20260505173021 | 87 | 266 | 1.0 | 4.0 | 0.00 | 0.00 | 0.00 | 41 | 1007.2 |
| 20260505171533 | 86 | 242 | 1.0 | 2.0 | 0.00 | 0.00 | 0.00 | 46 | 1007.4 |
| 20260505170019 | 85 | 233 | 1.0 | 4.0 | 0.00 | 0.00 | 0.00 | 48 | 1007.4 |
| 20260505164527 | 84 | 251 | 1.0 | 4.0 | 0.00 | 0.00 | 0.00 | 49 | 1007.5 |
| 20260505163020 | 83 | 281 | 1.0 | 2.0 | 0.00 | 0.00 | 0.00 | 50 | 1007.4 |
| 20260505161528 | 81 | 212 | 2.0 | 4.0 | 0.00 | 0.00 | 0.00 | 54 | 1007.5 |
| 20260505153015 | 79 | 221 | 1.0 | 5.0 | 0.00 | 0.00 | 0.00 | 59 | 1007.3 |
| 20260505151517 | 78 | 245 | 2.0 | 5.0 | 0.00 | 0.00 | 0.00 | 57 | 1007.3 |
| 20260505124507 | 69 | 147 | 0.0 | 3.0 | 0.00 | 0.00 | 0.00 | 78 | 1005.8 |
| 20260505123007 | 69 | 233 | 0.0 | 2.0 | 0.00 | 0.00 | 0.00 | 79 | 1005.8 |
| 20260505121526 | 68 | 248 | 1.0 | 2.0 | 0.00 | 0.00 | 0.00 | 80 | 1005.6 |
| 20260505120030 | 67 | 236 | 0.0 | 3.0 | 0.00 | 0.00 | 0.00 | 81 | 1005.4 |
| 20260505114520 | 67 | 161 | 0.0 | 0.0 | 0.00 | 0.00 | 0.00 | 81 | 1005.4 |
| 20260505113002 | 67 | 167 | 1.0 | 3.0 | 0.00 | 0.00 | 0.00 | 81 | 1005.2 |
| 20260505111550 | 67 | 175 | 1.0 | 4.0 | 0.00 | 0.00 | 0.00 | 80 | 1005.2 |
| 20260505101504 | 68 | 159 | 1.0 | 4.0 | 0.00 | 0.00 | 0.00 | 78 | 1005.2 |
| 20260505100001 | 68 | 153 | 1.0 | 5.0 | 0.00 | 0.00 | 0.00 | 78 | 1005.2 |
| 20260505094501 | 69 | 148 | 1.0 | 6.0 | 0.00 | 0.00 | 0.00 | 77 | 1005.1 |
| 20260505093002 | 69 | 188 | 1.0 | 4.0 | 0.00 | 0.00 | 0.00 | 77 | 1004.9 |
| 20260505091500 | 69 | 198 | 0.0 | 5.0 | 0.00 | 0.00 | 0.00 | 76 | 1005.2 |
| 20260505090001 | 69 | 140 | 1.0 | 4.0 | 0.00 | 0.00 | 0.00 | 76 | 1005.2 |
| 20260505084510 | 70 | 219 | 1.0 | 3.0 | 0.00 | 0.00 | 0.00 | 75 | 1005.2 |
| 20260505083000 | 70 | 167 | 2.0 | 5.0 | 0.00 | 0.00 | 0.00 | 75 | 1005.4 |
| 20260505081502 | 70 | 231 | 1.0 | 4.0 | 0.00 | 0.00 | 0.00 | 74 | 1005.6 |
| 20260505080012 | 70 | 188 | 1.0 | 3.0 | 0.00 | 0.00 | 0.00 | 74 | 1005.7 |
| 20260505074504 | 71 | 212 | 0.0 | 3.0 | 0.00 | 0.00 | 0.00 | 73 | 1005.8 |
| 20260505073004 | 71 | 210 | 2.0 | 3.0 | 0.00 | 0.00 | 0.00 | 73 | 1006.0 |
| 20260505071502 | 71 | 256 | 0.0 | 4.0 | 0.00 | 0.00 | 0.00 | 72 | 1006.1 |
| 20260505070005 | 72 | 180 | 2.0 | 4.0 | 0.00 | 0.00 | 0.00 | 71 | 1006.1 |
| 20260505064504 | 72 | 172 | 1.0 | 4.0 | 0.00 | 0.00 | 0.00 | 70 | 1006.5 |
| 20260505063004 | 73 | 225 | 1.0 | 5.0 | 0.00 | 0.00 | 0.00 | 68 | 1006.5 |
| 20260505061505 | 74 | 125 | 2.0 | 4.0 | 0.00 | 0.00 | 0.00 | 67 | 1006.3 |
| 20260505060005 | 74 | 166 | 2.0 | 5.0 | 0.00 | 0.00 | 0.00 | 66 | 1006.4 |
| 20260505054505 | 74 | 157 | 2.0 | 5.0 | 0.00 | 0.00 | 0.00 | 64 | 1006.5 |
| 20260505053004 | 75 | 194 | 1.0 | 4.0 | 0.00 | 0.00 | 0.00 | 63 | 1006.5 |
| 20260505051505 | 75 | 235 | 2.0 | 4.0 | 0.00 | 0.00 | 0.00 | 62 | 1006.5 |
| 20260505041504 | 76 | 238 | 1.0 | 4.0 | 0.00 | 0.00 | 0.00 | 58 | 1006.3 |
| 20260505040011 | 77 | 133 | 2.0 | 5.0 | 0.00 | 0.00 | 0.00 | 57 | 1006.3 |